SWA3550 KTYS-KMCO

Flight info

Callsign SWA3550
Flight time 1h 18m
Altitude 35000
Route TALLA DAREE Q65 KERLY/N0454F400 WHYYT GRNCH5
Aircraft B737/M-SDE2E3FGHIRWXY/LB1

Departure

Time 2026-05-04 00:27
Airport McGhee Tyson Airport (KTYS)

Arrival

Time 2026-05-04 01:45
Airport Orlando International Airport (KMCO)
Time Latitude Longitude Altitude Speed Heading
2026-05-04 00:15 35.80738 -83.99088 990 ft 0 kts 131°
2026-05-04 00:21 35.80739 -83.99089 990 ft 1 kts 131°
2026-05-04 00:21 35.80747 -83.99103 990 ft 3 kts 111°
2026-05-04 00:21 35.80749 -83.99126 990 ft 3 kts 71°
2026-05-04 00:21 35.80745 -83.99136 990 ft 0 kts 54°
2026-05-04 00:23 35.80760 -83.99129 990 ft 16 kts 12°
2026-05-04 00:24 35.80862 -83.99058 990 ft 17 kts 38°
2026-05-04 00:24 35.80966 -83.99029 990 ft 16 kts 23°
2026-05-04 00:24 35.81076 -83.98924 990 ft 18 kts 44°
2026-05-04 00:24 35.81162 -83.98820 990 ft 19 kts 45°
2026-05-04 00:25 35.81245 -83.98719 990 ft 16 kts 45°
2026-05-04 00:25 35.81329 -83.98617 990 ft 16 kts 44°
2026-05-04 00:25 35.81409 -83.98521 990 ft 15 kts 44°
2026-05-04 00:25 35.81482 -83.98434 990 ft 14 kts 44°
2026-05-04 00:26 35.81552 -83.98348 990 ft 15 kts 47°
2026-05-04 00:26 35.81639 -83.98271 990 ft 19 kts 32°
2026-05-04 00:26 35.81729 -83.98273 990 ft 13 kts 285°
2026-05-04 00:26 35.81643 -83.98403 990 ft 43 kts 226°
2026-05-04 00:27 35.81273 -83.98858 990 ft 106 kts 225°
2026-05-04 00:27 35.80628 -83.99650 1062 ft 149 kts 225°
2026-05-04 00:27 35.79814 -84.00631 1656 ft 175 kts 219°
2026-05-04 00:27 35.78549 -84.01253 2700 ft 215 kts 191°
2026-05-04 00:28 35.77013 -84.01019 3734 ft 234 kts 162°
2026-05-04 00:28 35.75516 -84.00136 4804 ft 244 kts 154°
2026-05-04 00:28 35.73989 -83.99159 5842 ft 244 kts 157°
2026-05-04 00:28 35.72429 -83.98355 7097 ft 248 kts 163°
2026-05-04 00:29 35.70736 -83.97778 8366 ft 254 kts 172°
2026-05-04 00:29 35.68980 -83.97438 9617 ft 260 kts 176°
2026-05-04 00:29 35.67115 -83.97194 10654 ft 279 kts 178°
2026-05-04 00:29 35.65149 -83.96987 11456 ft 292 kts 179°
2026-05-04 00:30 35.63077 -83.96785 12264 ft 305 kts 179°
2026-05-04 00:30 35.60931 -83.96578 13069 ft 315 kts 178°
2026-05-04 00:30 35.58699 -83.96357 13901 ft 323 kts 178°
2026-05-04 00:30 35.56456 -83.96127 14772 ft 329 kts 178°
2026-05-04 00:31 35.54156 -83.95887 15650 ft 336 kts 178°
2026-05-04 00:31 35.51788 -83.95636 16536 ft 342 kts 179°
2026-05-04 00:31 35.49418 -83.95383 17407 ft 348 kts 179°
2026-05-04 00:31 35.46968 -83.95120 18292 ft 353 kts 179°
2026-05-04 00:32 35.44506 -83.94855 18986 ft 366 kts 179°
2026-05-04 00:32 35.41935 -83.94579 19493 ft 371 kts 179°
2026-05-04 00:32 35.39383 -83.94301 19991 ft 373 kts 179°
2026-05-04 00:32 35.36775 -83.94015 20496 ft 376 kts 179°
2026-05-04 00:33 35.34167 -83.93729 20997 ft 378 kts 179°
2026-05-04 00:33 35.28905 -83.93151 22000 ft 382 kts 180°
2026-05-04 00:33 35.26236 -83.92859 22505 ft 384 kts 180°
2026-05-04 00:34 35.23589 -83.92569 23004 ft 385 kts 180°
2026-05-04 00:34 35.20900 -83.92276 23512 ft 385 kts 180°
2026-05-04 00:34 35.18255 -83.91986 24009 ft 385 kts 180°
2026-05-04 00:34 35.15551 -83.91691 24516 ft 386 kts 180°
2026-05-04 00:35 35.12898 -83.91403 25012 ft 387 kts 180°
2026-05-04 00:35 35.10196 -83.91110 25516 ft 389 kts 180°
2026-05-04 00:35 35.07524 -83.90821 26012 ft 390 kts 180°
2026-05-04 00:35 35.04790 -83.90526 26517 ft 393 kts 180°
2026-05-04 00:36 35.02045 -83.90230 27021 ft 395 kts 180°
2026-05-04 00:36 34.99323 -83.89937 27518 ft 397 kts 180°
2026-05-04 00:36 34.96545 -83.89637 28022 ft 400 kts 180°
2026-05-04 00:36 34.93761 -83.89337 28525 ft 402 kts 180°
2026-05-04 00:37 34.90991 -83.89038 29022 ft 405 kts 180°
2026-05-04 00:37 34.88163 -83.88733 29526 ft 407 kts 180°
2026-05-04 00:37 34.85347 -83.88429 30025 ft 410 kts 180°
2026-05-04 00:37 34.82486 -83.88120 30528 ft 412 kts 180°
2026-05-04 00:38 34.79641 -83.87813 31026 ft 415 kts 180°
2026-05-04 00:38 34.76737 -83.87499 31530 ft 418 kts 180°
2026-05-04 00:38 34.73819 -83.87183 32034 ft 421 kts 180°
2026-05-04 00:38 34.70914 -83.86870 32529 ft 424 kts 180°
2026-05-04 00:39 34.67948 -83.86551 32915 ft 431 kts 180°
2026-05-04 00:39 34.64930 -83.86107 33192 ft 442 kts 174°
2026-05-04 00:39 34.61930 -83.85164 33452 ft 452 kts 167°
2026-05-04 00:39 34.58938 -83.83859 33710 ft 459 kts 163°
2026-05-04 00:40 34.56004 -83.82349 33964 ft 463 kts 160°
2026-05-04 00:40 34.53056 -83.80690 34219 ft 465 kts 159°
2026-05-04 00:40 34.50167 -83.78979 34468 ft 466 kts 158°
2026-05-04 00:40 34.47296 -83.77232 34693 ft 468 kts 158°
2026-05-04 00:41 34.44333 -83.75405 34824 ft 471 kts 158°
2026-05-04 00:41 34.38467 -83.71768 34876 ft 474 kts 158°
2026-05-04 00:42 34.32591 -83.68133 34875 ft 473 kts 158°
2026-05-04 00:42 34.26729 -83.64531 34875 ft 472 kts 158°
2026-05-04 00:43 34.20878 -83.60971 34862 ft 478 kts 158°
2026-05-04 00:43 34.14851 -83.57326 34887 ft 482 kts 158°
2026-05-04 00:44 34.08904 -83.53738 34875 ft 475 kts 159°
2026-05-04 00:44 34.03029 -83.50207 34875 ft 472 kts 159°
2026-05-04 00:45 33.97165 -83.46699 34875 ft 470 kts 159°
2026-05-04 00:45 33.91270 -83.43185 34877 ft 470 kts 159°
2026-05-04 00:46 33.85404 -83.39698 34893 ft 469 kts 159°
2026-05-04 00:46 33.79578 -83.36242 35008 ft 466 kts 159°
2026-05-04 00:47 33.73768 -83.32800 35102 ft 467 kts 160°
2026-05-04 00:47 33.67948 -83.29353 35104 ft 464 kts 160°
2026-05-04 00:48 33.62177 -83.25944 35105 ft 461 kts 160°
2026-05-04 00:48 33.56421 -83.22551 35106 ft 460 kts 161°
2026-05-04 00:49 33.50685 -83.19177 35102 ft 458 kts 161°
2026-05-04 00:49 33.44976 -83.15826 35102 ft 458 kts 161°
2026-05-04 00:50 33.39247 -83.12470 35104 ft 457 kts 161°
2026-05-04 00:50 33.33529 -83.09125 35107 ft 457 kts 161°
2026-05-04 00:51 33.27804 -83.05781 35107 ft 458 kts 161°
2026-05-04 00:51 33.22085 -83.02443 35107 ft 458 kts 162°
2026-05-04 00:52 33.16365 -82.99107 35110 ft 458 kts 162°
2026-05-04 00:52 33.10651 -82.95781 35111 ft 458 kts 162°
2026-05-04 00:53 33.04930 -82.92457 35111 ft 457 kts 162°
2026-05-04 00:53 32.99226 -82.89145 35111 ft 456 kts 162°
2026-05-04 00:54 32.93508 -82.85831 35111 ft 456 kts 162°
2026-05-04 00:54 32.87811 -82.82534 35111 ft 456 kts 162°
2026-05-04 00:55 32.82102 -82.79235 35111 ft 456 kts 162°
2026-05-04 00:55 32.76419 -82.75957 35111 ft 456 kts 162°
2026-05-04 00:56 32.70701 -82.72662 35111 ft 456 kts 163°
2026-05-04 00:56 32.64984 -82.69363 35114 ft 456 kts 163°
2026-05-04 00:57 32.59275 -82.66082 35114 ft 456 kts 163°
2026-05-04 00:57 32.53565 -82.62807 35113 ft 456 kts 163°
2026-05-04 00:58 32.47856 -82.59539 35112 ft 457 kts 163°
2026-05-04 00:58 32.42111 -82.56258 35116 ft 459 kts 163°
2026-05-04 00:59 32.36366 -82.52975 35113 ft 457 kts 163°
2026-05-04 00:59 32.30668 -82.49720 35112 ft 456 kts 163°
2026-05-04 01:00 32.24948 -82.46458 35112 ft 455 kts 163°
2026-05-04 01:00 32.19245 -82.43209 35112 ft 454 kts 164°
2026-05-04 01:01 32.13548 -82.39971 35113 ft 454 kts 164°
2026-05-04 01:01 32.07796 -82.37261 35115 ft 440 kts 174°
2026-05-04 01:02 32.02832 -82.36080 35115 ft 431 kts 181°
2026-05-04 01:02 31.96936 -82.35265 35115 ft 427 kts 184°
2026-05-04 01:03 31.90994 -82.34672 35118 ft 426 kts 185°
2026-05-04 01:03 31.85092 -82.34136 35117 ft 427 kts 185°
2026-05-04 01:04 31.79163 -82.33590 35120 ft 427 kts 185°
2026-05-04 01:04 31.73220 -82.33022 35126 ft 427 kts 184°
2026-05-04 01:05 31.67304 -82.32434 35125 ft 427 kts 185°
2026-05-04 01:05 31.61423 -82.31836 35128 ft 426 kts 185°
2026-05-04 01:06 31.55511 -82.31226 35135 ft 426 kts 185°
2026-05-04 01:06 31.49589 -82.30612 35132 ft 426 kts 185°
2026-05-04 01:07 31.43695 -82.29996 35135 ft 425 kts 185°
2026-05-04 01:07 31.37805 -82.29380 35139 ft 425 kts 185°
2026-05-04 01:08 31.31910 -82.28764 35137 ft 425 kts 185°
2026-05-04 01:08 31.26025 -82.28148 35138 ft 425 kts 185°
2026-05-04 01:09 31.20127 -82.27530 35140 ft 425 kts 185°
2026-05-04 01:09 31.14231 -82.26911 35139 ft 425 kts 185°
2026-05-04 01:10 31.08384 -82.26300 35140 ft 424 kts 185°
2026-05-04 01:10 31.02500 -82.25867 35141 ft 417 kts 190°
2026-05-04 01:11 30.96781 -82.26202 35142 ft 411 kts 195°
2026-05-04 01:11 30.91115 -82.26919 35139 ft 408 kts 196°
2026-05-04 01:12 30.85482 -82.27769 35138 ft 408 kts 197°
2026-05-04 01:12 30.79855 -82.28649 35132 ft 408 kts 197°
2026-05-04 01:13 30.74219 -82.29524 35132 ft 409 kts 197°
2026-05-04 01:13 30.68578 -82.30377 35139 ft 409 kts 197°
2026-05-04 01:14 30.62964 -82.31170 35135 ft 412 kts 194°
2026-05-04 01:14 30.57156 -82.31030 35136 ft 423 kts 186°
2026-05-04 01:15 30.51263 -82.30150 35141 ft 429 kts 182°
2026-05-04 01:15 30.45333 -82.28972 35137 ft 431 kts 181°
2026-05-04 01:16 30.39459 -82.27717 35136 ft 431 kts 181°
2026-05-04 01:16 30.33534 -82.26447 35140 ft 431 kts 181°
2026-05-04 01:17 30.27658 -82.25215 35140 ft 431 kts 181°
2026-05-04 01:17 30.21733 -82.24005 35138 ft 431 kts 181°
2026-05-04 01:18 30.15838 -82.22829 35135 ft 429 kts 181°
2026-05-04 01:18 30.10059 -82.21673 35130 ft 416 kts 182°
2026-05-04 01:19 30.04366 -82.20543 34536 ft 417 kts 181°
2026-05-04 01:19 30.01492 -82.19986 33922 ft 416 kts 181°
2026-05-04 01:19 29.98679 -82.19435 33402 ft 409 kts 181°
2026-05-04 01:19 29.95884 -82.18883 32894 ft 403 kts 181°
2026-05-04 01:20 29.93149 -82.18339 32395 ft 399 kts 181°
2026-05-04 01:20 29.90405 -82.17792 31890 ft 396 kts 180°
2026-05-04 01:20 29.87717 -82.17255 31391 ft 393 kts 180°
2026-05-04 01:20 29.85025 -82.16719 30888 ft 390 kts 180°
2026-05-04 01:21 29.82354 -82.16187 30386 ft 387 kts 180°
2026-05-04 01:21 29.79720 -82.15663 29888 ft 384 kts 180°
2026-05-04 01:21 29.77086 -82.15138 29385 ft 381 kts 179°
2026-05-04 01:21 29.74499 -82.14624 28888 ft 379 kts 179°
2026-05-04 01:22 29.71895 -82.14107 28383 ft 376 kts 179°
2026-05-04 01:22 29.69339 -82.13599 27884 ft 373 kts 179°
2026-05-04 01:22 29.66779 -82.13090 27380 ft 370 kts 179°
2026-05-04 01:22 29.64270 -82.12592 26883 ft 367 kts 179°
2026-05-04 01:23 29.61776 -82.12098 26385 ft 365 kts 179°
2026-05-04 01:23 29.59264 -82.11601 25880 ft 362 kts 179°
2026-05-04 01:23 29.56801 -82.11114 25381 ft 360 kts 179°
2026-05-04 01:23 29.54354 -82.10631 24883 ft 357 kts 179°
2026-05-04 01:24 29.51909 -82.10149 24381 ft 355 kts 179°
2026-05-04 01:24 29.49463 -82.09665 23876 ft 352 kts 178°
2026-05-04 01:24 29.47079 -82.09193 23381 ft 350 kts 178°
2026-05-04 01:24 29.44665 -82.08715 22875 ft 347 kts 178°
2026-05-04 01:25 29.42310 -82.08248 22378 ft 344 kts 178°
2026-05-04 01:25 29.39976 -82.07786 21880 ft 341 kts 178°
2026-05-04 01:25 29.37632 -82.07323 21376 ft 338 kts 178°
2026-05-04 01:25 29.35338 -82.06870 20878 ft 335 kts 178°
2026-05-04 01:26 29.33049 -82.06279 20374 ft 337 kts 172°
2026-05-04 01:26 29.30840 -82.05424 19879 ft 338 kts 167°
2026-05-04 01:26 29.28644 -82.04370 19375 ft 338 kts 164°
2026-05-04 01:26 29.26541 -82.03229 18881 ft 337 kts 162°
2026-05-04 01:27 29.24439 -82.02003 18377 ft 336 kts 161°
2026-05-04 01:27 29.22405 -82.00763 17881 ft 334 kts 160°
2026-05-04 01:27 29.20344 -81.99478 17374 ft 332 kts 160°
2026-05-04 01:27 29.18333 -81.98209 16876 ft 330 kts 160°
2026-05-04 01:28 29.16337 -81.96941 16378 ft 329 kts 160°
2026-05-04 01:28 29.14321 -81.95664 16150 ft 330 kts 160°
2026-05-04 01:28 29.12295 -81.94391 16049 ft 339 kts 160°
2026-05-04 01:28 29.10221 -81.93081 16010 ft 346 kts 158°
2026-05-04 01:29 29.08141 -81.91580 16005 ft 354 kts 154°
2026-05-04 01:29 29.06139 -81.89919 16004 ft 360 kts 150°
2026-05-04 01:29 29.04168 -81.88096 16004 ft 364 kts 147°
2026-05-04 01:29 29.02275 -81.86195 16004 ft 367 kts 145°
2026-05-04 01:30 29.00399 -81.84170 16005 ft 370 kts 142°
2026-05-04 01:30 28.98629 -81.82039 15921 ft 376 kts 139°
2026-05-04 01:30 28.96889 -81.79765 15485 ft 378 kts 137°
2026-05-04 01:30 28.95267 -81.77489 14989 ft 365 kts 135°
2026-05-04 01:31 28.93724 -81.75217 14483 ft 354 kts 134°
2026-05-04 01:31 28.92261 -81.73003 14100 ft 342 kts 133°
2026-05-04 01:31 28.90881 -81.70890 14014 ft 330 kts 133°
2026-05-04 01:31 28.89499 -81.68789 13994 ft 328 kts 133°
2026-05-04 01:32 28.88135 -81.66743 13993 ft 328 kts 134°
2026-05-04 01:32 28.86745 -81.64674 13992 ft 328 kts 134°
2026-05-04 01:32 28.85343 -81.62600 13993 ft 328 kts 134°
2026-05-04 01:32 28.83948 -81.60541 13993 ft 328 kts 134°
2026-05-04 01:33 28.82557 -81.58489 13994 ft 322 kts 134°
2026-05-04 01:33 28.81140 -81.56633 13994 ft 301 kts 141°
2026-05-04 01:33 28.79598 -81.55053 13574 ft 300 kts 148°
2026-05-04 01:33 28.77931 -81.53642 13077 ft 293 kts 152°
2026-05-04 01:34 28.76237 -81.52387 12578 ft 286 kts 155°
2026-05-04 01:34 28.74553 -81.51249 12083 ft 282 kts 157°
2026-05-04 01:34 28.72848 -81.50164 11582 ft 278 kts 158°
2026-05-04 01:34 28.71150 -81.49121 11079 ft 275 kts 158°
2026-05-04 01:35 28.69483 -81.48117 10581 ft 272 kts 158°
2026-05-04 01:35 28.67803 -81.47115 10078 ft 270 kts 158°
2026-05-04 01:35 28.66159 -81.46138 9579 ft 269 kts 157°
2026-05-04 01:35 28.64496 -81.45150 9079 ft 268 kts 156°
2026-05-04 01:36 28.62840 -81.44176 8586 ft 266 kts 157°
2026-05-04 01:36 28.61150 -81.43330 8106 ft 263 kts 162°
2026-05-04 01:36 28.59467 -81.42751 7991 ft 250 kts 171°
2026-05-04 01:36 28.57739 -81.42481 7976 ft 250 kts 178°
2026-05-04 01:37 28.55990 -81.42379 7972 ft 253 kts 182°
2026-05-04 01:37 28.54223 -81.42352 7957 ft 252 kts 183°
2026-05-04 01:37 28.52461 -81.42357 7734 ft 253 kts 184°
2026-05-04 01:37 28.50711 -81.42369 7497 ft 249 kts 183°
2026-05-04 01:38 28.49000 -81.42304 7264 ft 247 kts 180°
2026-05-04 01:38 28.47283 -81.42202 7027 ft 245 kts 179°
2026-05-04 01:38 28.45581 -81.42095 6792 ft 244 kts 179°
2026-05-04 01:38 28.43899 -81.41994 6559 ft 243 kts 179°
2026-05-04 01:39 28.42211 -81.41901 6323 ft 241 kts 179°
2026-05-04 01:39 28.40517 -81.41817 5930 ft 245 kts 179°
2026-05-04 01:39 28.38835 -81.41745 5438 ft 243 kts 179°
2026-05-04 01:39 28.37153 -81.41687 4935 ft 238 kts 178°
2026-05-04 01:40 28.35501 -81.41642 4430 ft 235 kts 179°
2026-05-04 01:40 28.33912 -81.41605 3941 ft 234 kts 179°
2026-05-04 01:40 28.32337 -81.41441 3448 ft 225 kts 165°
2026-05-04 01:40 28.31054 -81.40558 3019 ft 211 kts 131°
2026-05-04 01:41 28.30456 -81.39118 2969 ft 200 kts 98°
2026-05-04 01:41 28.30425 -81.37534 3047 ft 203 kts 88°
2026-05-04 01:41 28.30415 -81.35934 2976 ft 205 kts 89°
2026-05-04 01:41 28.30406 -81.34337 2956 ft 199 kts 89°
2026-05-04 01:42 28.30673 -81.32823 2666 ft 196 kts 68°
2026-05-04 01:42 28.31589 -81.31751 2270 ft 192 kts 34°
2026-05-04 01:42 28.32843 -81.31499 1870 ft 184 kts
2026-05-04 01:42 28.34063 -81.31759 1541 ft 170 kts 355°
2026-05-04 01:43 28.35174 -81.31958 1323 ft 153 kts 358°
2026-05-04 01:43 28.36187 -81.32075 1037 ft 142 kts
2026-05-04 01:43 28.37168 -81.32138 780 ft 147 kts
2026-05-04 01:43 28.38190 -81.32176 605 ft 142 kts
2026-05-04 01:44 28.39164 -81.32182 440 ft 142 kts
2026-05-04 01:44 28.40215 -81.32174 338 ft 152 kts
2026-05-04 01:44 28.40895 -81.32179 231 ft 141 kts 359°
2026-05-04 01:44 28.41836 -81.32198 106 ft 125 kts 359°
2026-05-04 01:45 28.42518 -81.32210 105 ft 68 kts 359°
2026-05-04 01:45 28.42958 -81.32209 105 ft 53 kts
2026-05-04 01:45 28.43211 -81.32047 105 ft 13 kts 11°
2026-05-04 01:46 28.43309 -81.32041 105 ft 15 kts
2026-05-04 01:46 28.43401 -81.32038 105 ft 15 kts
2026-05-04 01:46 28.43540 -81.32042 105 ft 22 kts 359°
2026-05-04 01:46 28.43691 -81.32045 105 ft 22 kts 357°
2026-05-04 01:47 28.43844 -81.32054 105 ft 20 kts 358°
2026-05-04 01:47 28.43950 -81.32021 105 ft 14 kts 66°
2026-05-04 01:47 28.43945 -81.31887 105 ft 20 kts 89°
2026-05-04 01:47 28.43945 -81.31730 105 ft 19 kts 91°
2026-05-04 01:48 28.43944 -81.31586 105 ft 19 kts 90°
2026-05-04 01:48 28.43943 -81.31435 105 ft 19 kts 90°
2026-05-04 01:48 28.43943 -81.31282 105 ft 19 kts 90°
2026-05-04 01:48 28.43944 -81.31122 105 ft 23 kts 89°
2026-05-04 01:49 28.43945 -81.30961 105 ft 19 kts 90°
2026-05-04 01:49 28.43944 -81.30801 105 ft 23 kts 90°
2026-05-04 01:49 28.43944 -81.30620 105 ft 24 kts 90°
2026-05-04 01:49 28.43945 -81.30418 105 ft 24 kts 90°
2026-05-04 01:50 28.43915 -81.30273 105 ft 14 kts 161°
2026-05-04 01:50 28.43795 -81.30289 105 ft 17 kts 225°
2026-05-04 01:50 28.43714 -81.30340 105 ft 11 kts 199°
2026-05-04 01:50 28.43625 -81.30361 105 ft 15 kts 184°
2026-05-04 01:51 28.43599 -81.30363 105 ft 0 kts 182°
2026-05-04 01:51 28.43598 -81.30363 105 ft 0 kts 182°